Time,TemperatureF,DewpointF,PressureIn,WindDirection,WindDirectionDegrees,WindSpeedMPH,WindSpeedGustMPH,Humidity,HourlyPrecipIn,Conditions,Clouds,dailyrainin,SoftwareType,DateUTC
2013-05-11 00:03:00,62.0,57.0,29.85,SE,129,0.0,3.0,85,0.03,,,0.03,,2013-05-11 04:03:00,
2013-05-11 00:12:00,62.0,57.0,29.85,SE,129,0.0,3.0,85,0.03,,,0.03,,2013-05-11 04:12:00,
2013-05-11 00:23:00,61.0,57.0,29.85,ESE,111,0.0,3.0,87,0.04,,,0.04,,2013-05-11 04:23:00,
2013-05-11 00:43:00,61.0,58.0,29.83,SE,126,0.0,2.0,89,0.03,,,0.04,,2013-05-11 04:43:00,
2013-05-11 00:52:00,61.0,58.0,29.83,SE,126,0.0,2.0,89,0.03,,,0.04,,2013-05-11 04:52:00,
2013-05-11 01:02:00,61.0,58.0,29.83,ESE,120,0.0,4.0,89,0.01,,,0.04,,2013-05-11 05:02:00,
2013-05-11 01:12:00,61.0,58.0,29.83,ESE,120,0.0,4.0,89,0.01,,,0.04,,2013-05-11 05:12:00,
2013-05-11 01:22:00,61.0,58.0,29.82,ESE,122,1.0,5.0,89,0.01,,,0.05,,2013-05-11 05:22:00,
2013-05-11 01:32:00,61.0,58.0,29.81,SE,129,0.0,2.0,90,0.01,,,0.05,,2013-05-11 05:32:00,
2013-05-11 01:42:00,61.0,58.0,29.81,SE,129,0.0,2.0,90,0.01,,,0.05,,2013-05-11 05:42:00,
2013-05-11 01:52:00,60.0,57.0,29.80,ESE,105,0.0,1.0,91,0.02,,,0.06,,2013-05-11 05:52:00,
2013-05-11 02:02:00,60.0,58.0,29.80,ESE,108,0.0,1.0,92,0.02,,,0.06,,2013-05-11 06:02:00,
2013-05-11 02:12:00,60.0,58.0,29.80,ESE,108,0.0,1.0,92,0.02,,,0.06,,2013-05-11 06:12:00,
2013-05-11 02:22:00,60.0,58.0,29.79,East,86,0.0,2.0,92,0.01,,,0.06,,2013-05-11 06:22:00,
2013-05-11 02:32:00,60.0,58.0,29.78,SE,125,0.0,6.0,92,0.02,,,0.07,,2013-05-11 06:32:00,
2013-05-11 02:42:00,60.0,58.0,29.77,SE,129,0.0,1.0,92,0.01,,,0.07,,2013-05-11 06:42:00,
2013-05-11 02:52:00,60.0,58.0,29.77,SE,129,0.0,1.0,92,0.01,,,0.07,,2013-05-11 06:52:00,
2013-05-11 03:02:00,59.0,57.0,29.75,East,99,0.0,3.0,92,0.01,,,0.07,,2013-05-11 07:02:00,
2013-05-11 03:12:00,59.0,57.0,29.75,East,99,0.0,3.0,92,0.01,,,0.07,,2013-05-11 07:12:00,
2013-05-11 03:21:00,60.0,58.0,29.74,ESE,117,0.0,4.0,92,0.01,,,0.07,,2013-05-11 07:21:00,
2013-05-11 03:32:00,60.0,58.0,29.74,ENE,75,1.0,3.0,92,0.00,,,0.07,,2013-05-11 07:32:00,
2013-05-11 03:42:00,60.0,58.0,29.74,ENE,75,1.0,3.0,92,0.00,,,0.07,,2013-05-11 07:42:00,
2013-05-11 03:52:00,60.0,58.0,29.74,East,82,0.0,2.0,92,0.01,,,0.08,,2013-05-11 07:52:00,
2013-05-11 04:02:00,60.0,58.0,29.74,ESE,120,0.0,0.0,92,0.01,,,0.08,,2013-05-11 08:02:00,
2013-05-11 04:12:00,60.0,58.0,29.74,ESE,120,0.0,0.0,92,0.01,,,0.08,,2013-05-11 08:12:00,
2013-05-11 04:21:00,59.0,57.0,29.73,ENE,65,0.0,2.0,92,0.02,,,0.09,,2013-05-11 08:21:00,
2013-05-11 04:32:00,59.0,57.0,29.73,SE,125,0.0,1.0,93,0.03,,,0.10,,2013-05-11 08:32:00,
2013-05-11 04:42:00,59.0,57.0,29.72,SE,125,0.0,2.0,93,0.03,,,0.11,,2013-05-11 08:42:00,
2013-05-11 04:52:00,59.0,57.0,29.72,SE,125,0.0,2.0,93,0.03,,,0.11,,2013-05-11 08:52:00,
2013-05-11 05:01:00,59.0,57.0,29.71,SE,135,1.0,5.0,93,0.06,,,0.14,,2013-05-11 09:01:00,
2013-05-11 05:12:00,59.0,57.0,29.71,SE,135,1.0,5.0,93,0.06,,,0.14,,2013-05-11 09:12:00,
2013-05-11 05:21:00,59.0,57.0,29.71,SE,135,1.0,6.0,93,0.06,,,0.15,,2013-05-11 09:21:00,
2013-05-11 05:32:00,59.0,57.0,29.71,SE,125,1.0,2.0,93,0.05,,,0.15,,2013-05-11 09:32:00,
2013-05-11 05:42:00,59.0,57.0,29.71,SE,125,1.0,2.0,93,0.05,,,0.15,,2013-05-11 09:42:00,
2013-05-11 05:52:00,59.0,57.0,29.71,SE,142,1.0,4.0,93,0.04,,,0.15,,2013-05-11 09:52:00,
2013-05-11 06:03:00,59.0,57.0,29.72,East,94,0.0,4.0,93,0.01,,,0.15,,2013-05-11 10:03:00,
2013-05-11 06:12:00,59.0,57.0,29.72,East,94,0.0,4.0,93,0.01,,,0.15,,2013-05-11 10:12:00,
2013-05-11 06:22:00,59.0,57.0,29.72,SE,127,0.0,4.0,93,0.00,,,0.15,,2013-05-11 10:22:00,
2013-05-11 06:33:00,59.0,57.0,29.72,SE,139,0.0,2.0,93,0.00,,,0.15,,2013-05-11 10:33:00,
2013-05-11 06:42:00,59.0,57.0,29.72,SE,139,0.0,2.0,93,0.00,,,0.15,,2013-05-11 10:42:00,
2013-05-11 06:52:00,59.0,57.0,29.72,ESE,108,0.0,1.0,93,0.00,,,0.15,,2013-05-11 10:52:00,
2013-05-11 07:03:00,59.0,57.0,29.72,SE,135,1.0,2.0,94,0.00,,,0.15,,2013-05-11 11:03:00,
2013-05-11 07:12:00,59.0,57.0,29.72,SE,135,1.0,2.0,94,0.00,,,0.15,,2013-05-11 11:12:00,
2013-05-11 07:22:00,59.0,57.0,29.72,SE,139,0.0,2.0,94,0.00,,,0.15,,2013-05-11 11:22:00,
2013-05-11 07:32:00,59.0,57.0,29.72,SE,139,0.0,0.0,94,0.00,,,0.15,,2013-05-11 11:32:00,
2013-05-11 07:42:00,59.0,57.0,29.72,SE,139,0.0,0.0,94,0.00,,,0.15,,2013-05-11 11:42:00,
2013-05-11 07:51:00,60.0,58.0,29.72,SE,139,0.0,1.0,94,0.00,,,0.15,,2013-05-11 11:51:00,
2013-05-11 08:01:00,60.0,58.0,29.71,SE,139,0.0,0.0,94,0.00,,,0.15,,2013-05-11 12:01:00,
2013-05-11 08:11:00,60.0,58.0,29.71,SE,139,0.0,0.0,94,0.00,,,0.15,,2013-05-11 12:11:00,
2013-05-11 08:22:00,60.0,58.0,29.71,SE,139,0.0,0.0,94,0.00,,,0.15,,2013-05-11 12:22:00,
2013-05-11 08:32:00,60.0,58.0,29.71,ESE,120,0.0,1.0,94,0.00,,,0.15,,2013-05-11 12:32:00,
2013-05-11 08:42:00,60.0,58.0,29.71,ESE,120,0.0,1.0,94,0.00,,,0.15,,2013-05-11 12:42:00,
2013-05-11 08:51:00,61.0,59.0,29.70,SE,129,1.0,3.0,93,0.00,,,0.15,,2013-05-11 12:51:00,
2013-05-11 09:02:00,61.0,59.0,29.70,ESE,115,0.0,3.0,92,0.00,,,0.15,,2013-05-11 13:02:00,
2013-05-11 09:11:00,61.0,59.0,29.70,ESE,115,0.0,3.0,92,0.00,,,0.15,,2013-05-11 13:11:00,
2013-05-11 09:21:00,61.0,59.0,29.71,ESE,114,0.0,4.0,92,0.01,,,0.16,,2013-05-11 13:21:00,
2013-05-11 09:32:00,61.0,59.0,29.70,SE,125,0.0,4.0,92,0.01,,,0.16,,2013-05-11 13:32:00,
2013-05-11 09:42:00,61.0,59.0,29.70,SSW,198,1.0,3.0,92,0.01,,,0.16,,2013-05-11 13:42:00,
2013-05-11 09:52:00,61.0,59.0,29.70,SSW,198,1.0,3.0,92,0.01,,,0.16,,2013-05-11 13:52:00,
2013-05-11 10:02:00,61.0,59.0,29.70,SE,135,0.0,2.0,93,0.02,,,0.17,,2013-05-11 14:02:00,
2013-05-11 10:11:00,61.0,59.0,29.70,SE,135,0.0,2.0,93,0.02,,,0.17,,2013-05-11 14:11:00,
2013-05-11 10:21:00,61.0,59.0,29.69,SE,139,1.0,4.0,92,0.01,,,0.17,,2013-05-11 14:21:00,
2013-05-11 10:32:00,62.0,60.0,29.69,SSE,148,0.0,4.0,93,0.01,,,0.17,,2013-05-11 14:32:00,
2013-05-11 10:42:00,62.0,60.0,29.69,SSE,148,0.0,4.0,93,0.01,,,0.17,,2013-05-11 14:42:00,
2013-05-11 10:52:00,62.0,60.0,29.69,SE,127,0.0,1.0,93,0.01,,,0.17,,2013-05-11 14:52:00,
2013-05-11 11:01:00,63.0,61.0,29.68,NE,41,0.0,1.0,93,0.00,,,0.17,,2013-05-11 15:01:00,
2013-05-11 11:12:00,63.0,61.0,29.68,NE,41,0.0,1.0,93,0.00,,,0.17,,2013-05-11 15:12:00,
2013-05-11 11:21:00,63.0,60.0,29.68,SE,135,2.0,5.0,91,0.00,,,0.17,,2013-05-11 15:21:00,
2013-05-11 11:32:00,63.0,60.0,29.68,SE,135,2.0,5.0,91,0.00,,,0.17,,2013-05-11 15:32:00,
2013-05-11 11:43:00,63.0,60.0,29.68,SW,217,1.0,7.0,90,0.01,,,0.18,,2013-05-11 15:43:00,
2013-05-11 11:53:00,63.0,60.0,29.68,SW,217,1.0,7.0,90,0.01,,,0.18,,2013-05-11 15:53:00,
2013-05-11 12:03:00,62.0,58.0,29.69,NW,307,3.0,10.0,88,0.01,,,0.18,,2013-05-11 16:03:00,
2013-05-11 12:12:00,62.0,58.0,29.69,NW,307,3.0,10.0,88,0.01,,,0.18,,2013-05-11 16:12:00,
2013-05-11 12:23:00,60.0,57.0,29.69,West,266,1.0,10.0,91,0.05,,,0.22,,2013-05-11 16:23:00,
2013-05-11 12:33:00,61.0,58.0,29.69,NW,312,2.0,6.0,91,0.07,,,0.24,,2013-05-11 16:33:00,
2013-05-11 12:42:00,61.0,58.0,29.69,NW,312,2.0,6.0,91,0.07,,,0.24,,2013-05-11 16:42:00,
2013-05-11 12:52:00,62.0,59.0,29.69,WNW,300,2.0,9.0,89,0.06,,,0.24,,2013-05-11 16:52:00,
2013-05-11 13:02:00,61.0,57.0,29.70,ENE,58,5.0,13.0,88,0.06,,,0.24,,2013-05-11 17:02:00,
2013-05-11 13:12:00,61.0,57.0,29.70,ENE,58,5.0,13.0,88,0.06,,,0.24,,2013-05-11 17:12:00,
2013-05-11 13:22:00,58.0,54.0,29.70,South,191,4.0,16.0,88,0.01,,,0.24,,2013-05-11 17:22:00,
2013-05-11 13:32:00,57.0,54.0,29.71,West,276,4.0,15.0,89,0.00,,,0.24,,2013-05-11 17:32:00,
2013-05-11 13:42:00,57.0,54.0,29.71,West,276,4.0,15.0,89,0.00,,,0.24,,2013-05-11 17:42:00,
2013-05-11 13:52:00,56.0,53.0,29.70,WNW,285,3.0,9.0,89,0.00,,,0.24,,2013-05-11 17:52:00,
2013-05-11 14:01:00,55.0,52.0,29.70,WSW,257,3.0,9.0,89,0.00,,,0.24,,2013-05-11 18:01:00,
2013-05-11 14:12:00,55.0,52.0,29.70,WSW,257,3.0,9.0,89,0.00,,,0.24,,2013-05-11 18:12:00,
2013-05-11 14:21:00,55.0,52.0,29.72,WNW,283,2.0,8.0,89,0.00,,,0.24,,2013-05-11 18:21:00,
2013-05-11 14:32:00,55.0,52.0,29.72,West,268,2.0,9.0,88,0.00,,,0.24,,2013-05-11 18:32:00,
2013-05-11 14:42:00,55.0,52.0,29.72,West,268,2.0,9.0,88,0.00,,,0.24,,2013-05-11 18:42:00,
2013-05-11 14:52:00,56.0,52.0,29.71,NW,314,2.0,9.0,87,0.00,,,0.24,,2013-05-11 18:52:00,
2013-05-11 15:02:00,56.0,52.0,29.71,NW,325,1.0,10.0,87,0.00,,,0.24,,2013-05-11 19:02:00,
2013-05-11 15:11:00,56.0,52.0,29.71,NW,325,1.0,10.0,87,0.00,,,0.24,,2013-05-11 19:11:00,
2013-05-11 15:21:00,56.0,52.0,29.72,NW,319,1.0,5.0,86,0.00,,,0.24,,2013-05-11 19:21:00,
2013-05-11 15:32:00,56.0,52.0,29.71,West,281,1.0,5.0,85,0.00,,,0.24,,2013-05-11 19:32:00,
2013-05-11 15:42:00,56.0,52.0,29.71,West,281,1.0,5.0,85,0.00,,,0.24,,2013-05-11 19:42:00,
2013-05-11 15:52:00,56.0,52.0,29.72,East,81,1.0,7.0,85,0.00,,,0.24,,2013-05-11 19:52:00,
2013-05-11 16:02:00,56.0,52.0,29.72,WSW,257,2.0,7.0,85,0.00,,,0.24,,2013-05-11 20:02:00,
2013-05-11 16:12:00,56.0,52.0,29.72,WSW,257,2.0,7.0,85,0.00,,,0.24,,2013-05-11 20:12:00,
2013-05-11 16:22:00,56.0,52.0,29.72,ENE,69,1.0,5.0,86,0.00,,,0.24,,2013-05-11 20:22:00,
2013-05-11 16:32:00,55.0,51.0,29.72,North,6,0.0,6.0,85,0.00,,,0.24,,2013-05-11 20:32:00,
2013-05-11 16:42:00,55.0,51.0,29.72,North,6,0.0,6.0,85,0.00,,,0.24,,2013-05-11 20:42:00,
2013-05-11 16:52:00,55.0,50.0,29.72,West,277,1.0,4.0,84,0.00,,,0.24,,2013-05-11 20:52:00,
2013-05-11 17:02:00,56.0,51.0,29.72,WNW,285,1.0,5.0,82,0.00,,,0.24,,2013-05-11 21:02:00,
2013-05-11 17:12:00,56.0,51.0,29.72,WNW,285,1.0,5.0,82,0.00,,,0.24,,2013-05-11 21:12:00,
2013-05-11 17:22:00,56.0,51.0,29.72,NNW,339,0.0,9.0,82,0.00,,,0.24,,2013-05-11 21:22:00,
2013-05-11 17:33:00,56.0,51.0,29.72,North,354,1.0,8.0,82,0.00,,,0.24,,2013-05-11 21:33:00,
2013-05-11 17:43:00,56.0,51.0,29.72,North,354,1.0,8.0,82,0.00,,,0.24,,2013-05-11 21:43:00,
2013-05-11 17:52:00,57.0,51.0,29.72,NNW,344,2.0,7.0,79,0.00,,,0.24,,2013-05-11 21:52:00,
2013-05-11 18:02:00,57.0,50.0,29.72,West,281,3.0,9.0,78,0.00,,,0.24,,2013-05-11 22:02:00,
2013-05-11 18:13:00,57.0,50.0,29.72,West,281,3.0,9.0,78,0.00,,,0.24,,2013-05-11 22:13:00,
2013-05-11 18:23:00,57.0,50.0,29.72,WNW,287,1.0,7.0,77,0.00,,,0.24,,2013-05-11 22:23:00,
2013-05-11 18:33:00,58.0,50.0,29.72,WNW,296,2.0,8.0,76,0.00,,,0.24,,2013-05-11 22:33:00,
2013-05-11 18:42:00,58.0,50.0,29.72,WNW,296,2.0,8.0,76,0.00,,,0.24,,2013-05-11 22:42:00,
2013-05-11 18:52:00,58.0,50.0,29.72,West,259,2.0,6.0,75,0.00,,,0.24,,2013-05-11 22:52:00,
2013-05-11 19:02:00,57.0,50.0,29.73,WNW,294,0.0,5.0,77,0.00,,,0.24,,2013-05-11 23:02:00,
2013-05-11 19:12:00,57.0,50.0,29.73,WNW,294,0.0,5.0,77,0.00,,,0.24,,2013-05-11 23:12:00,
2013-05-11 19:22:00,56.0,49.0,29.74,West,281,2.0,8.0,78,0.00,,,0.24,,2013-05-11 23:22:00,
2013-05-11 19:32:00,55.0,49.0,29.75,WNW,291,1.0,4.0,80,0.00,,,0.24,,2013-05-11 23:32:00,
2013-05-11 19:42:00,55.0,49.0,29.75,WNW,291,1.0,3.0,80,0.00,,,0.24,,2013-05-11 23:42:00,
2013-05-11 19:52:00,55.0,49.0,29.75,WNW,291,1.0,3.0,80,0.00,,,0.24,,2013-05-11 23:52:00,
2013-05-11 20:01:00,54.0,48.0,29.76,West,281,1.0,4.0,81,0.00,,,0.24,,2013-05-12 00:01:00,
2013-05-11 20:12:00,54.0,48.0,29.76,West,281,1.0,4.0,81,0.00,,,0.24,,2013-05-12 00:12:00,
2013-05-11 20:21:00,54.0,49.0,29.75,WNW,283,0.0,3.0,82,0.00,,,0.24,,2013-05-12 00:21:00,
2013-05-11 20:32:00,54.0,49.0,29.76,WNW,283,0.0,1.0,82,0.00,,,0.24,,2013-05-12 00:32:00,
2013-05-11 20:42:00,54.0,49.0,29.76,WNW,283,0.0,1.0,82,0.00,,,0.24,,2013-05-12 00:42:00,
2013-05-11 20:52:00,53.0,48.0,29.75,West,270,0.0,3.0,84,0.00,,,0.24,,2013-05-12 00:52:00,
2013-05-11 21:01:00,53.0,48.0,29.76,NW,319,0.0,4.0,83,0.00,,,0.24,,2013-05-12 01:01:00,
2013-05-11 21:11:00,53.0,48.0,29.76,NW,319,0.0,4.0,83,0.00,,,0.24,,2013-05-12 01:11:00,
2013-05-11 21:21:00,52.0,47.0,29.76,West,280,0.0,3.0,84,0.00,,,0.24,,2013-05-12 01:21:00,
2013-05-11 21:32:00,52.0,47.0,29.76,WNW,302,0.0,2.0,84,0.00,,,0.24,,2013-05-12 01:32:00,
2013-05-11 21:42:00,52.0,47.0,29.76,WNW,302,0.0,2.0,84,0.00,,,0.24,,2013-05-12 01:42:00,
2013-05-11 21:52:00,52.0,48.0,29.76,West,260,1.0,4.0,85,0.00,,,0.24,,2013-05-12 01:52:00,
2013-05-11 22:01:00,52.0,47.0,29.77,WNW,300,0.0,3.0,84,0.00,,,0.24,,2013-05-12 02:01:00,
2013-05-11 22:12:00,52.0,47.0,29.77,WNW,300,0.0,3.0,84,0.00,,,0.24,,2013-05-12 02:12:00,
2013-05-11 22:22:00,52.0,48.0,29.76,West,259,0.0,4.0,85,0.00,,,0.24,,2013-05-12 02:22:00,
2013-05-11 22:32:00,51.0,46.0,29.76,West,262,1.0,7.0,84,0.00,,,0.24,,2013-05-12 02:32:00,
2013-05-11 22:42:00,51.0,46.0,29.76,West,262,1.0,7.0,84,0.00,,,0.24,,2013-05-12 02:42:00,
2013-05-11 22:52:00,51.0,46.0,29.76,West,262,1.0,7.0,84,0.00,,,0.24,,2013-05-12 02:52:00,
2013-05-11 23:02:00,50.0,45.0,29.75,ESE,117,1.0,5.0,84,0.00,,,0.24,,2013-05-12 03:02:00,
2013-05-11 23:11:00,50.0,45.0,29.76,West,266,0.0,2.0,84,0.00,,,0.24,,2013-05-12 03:11:00,
2013-05-11 23:22:00,50.0,45.0,29.76,West,266,0.0,2.0,84,0.00,,,0.24,,2013-05-12 03:22:00,
2013-05-11 23:33:00,50.0,46.0,29.75,NW,319,0.0,4.0,85,0.00,,,0.24,,2013-05-12 03:33:00,
2013-05-11 23:43:00,50.0,46.0,29.75,NW,319,0.0,4.0,85,0.00,,,0.24,,2013-05-12 03:43:00,
2013-05-11 23:53:00,50.0,46.0,29.74,WSW,245,0.0,3.0,85,0.00,,,0.24,,2013-05-12 03:53:00,